Zurück zum Katalog

FENGYUN 1C DEB

AktivSSO
NORAD 30209·DEBRIS·🇨🇳 China

Gestartet May 10, 1999 von Taiyuan Satellite Launch Center

Loading…

Nächste Überflüge (nächste 24 Stunden)

TLE

AktuellSource: Space-Track

Epoche: Sep 14, 2026, 05:38 UTC

1 30209U 99025VS  26257.23534903  .00000259  00000-0  16008-3 0  9994
2 30209  98.7279 252.0085 0039221 172.7490 251.8757 14.13186215 10982

Verfolge FENGYUN 1C DEB in Echtzeit mit AllMySat

Download on the App Store